Regional Weather Roundup
Issued by NWS Green Bay, WI

Home | Current Version | Previous Version | Text Only | Print | Product List | Glossary On
Versions: 1 2 3 4 5 6 7 8 9 10 11 12 13 14 15 16 17 18 19 20 21 22 23 24 25 26 27 28 29 30 31 32 33 34 35 36 37 38 39 40 41 42 43 44 45 46 47 48 49 50
000
ASUS43 KGRB 020110
RWRGRB

NORTH-CENTRAL AND NORTHEAST WISCONSIN REGIONAL WEATHER ROUNDUP
NATIONAL WEATHER SERVICE GREEN BAY WI
800 PM CDT WED APR 01 2015

WIZ005-009-010>012-018-019-020200-
NORTH CENTRAL WISCONSIN

CITY           SKY/WX    TMP DP  RH WIND       PRES   REMARKS
IRONWOOD       MOCLDY    61  37  41 S18G31    29.45F
MANITOWISH WTR MOCLDY    53  37  53 SE8       29.58R
ARBOR VITAE    CLOUDY    55  37  52 SE9       29.58F
EAGLE RIVER    CLOUDY    51  33  50 S9        29.61S
LAND O LAKES   CLOUDY    51  35  53 S9G18     29.61S
RHINELANDER    MOCLDY    55  36  48 SE10      29.62F
PHILLIPS       CLOUDY    62  39  42 S8        29.54F
ANTIGO         CLOUDY    50  39  67 SE13      29.65F
TOMAHAWK       MOCLDY    54  37  52 CALM      29.60F
MERRILL        CLOUDY    57  40  52 E7        29.61S
$$

WIZ013-073-020200-
NORTHEAST WISCONSIN

CITY           SKY/WX    TMP DP  RH WIND       PRES   REMARKS
IRON MOUNTAIN  CLOUDY    44  30  57 SE10      29.67F
MARINETTE      CLOUDY    43  34  70 E6        29.71F
OCONTO         CLOUDY    48  37  65 S6        29.70F
$$

WIZ017-030-035>037-045-020200-
CENTRAL WISCONSIN

CITY           SKY/WX    TMP DP  RH WIND       PRES   REMARKS
MEDFORD        MOCLDY    62  38  42 S14       29.58F
WAUSAU         CLOUDY    67  34  29 S13       29.60F
MOSINEE        CLEAR     64  34  32 S15G21    29.63F
MARSHFIELD     MOCLDY    69  31  24 S18G28    29.61F
WISC RAPIDS    MOCLDY    70  30  22 S10       29.64F
STEVENS POINT  MOCLDY    66  35  31 S13       29.64F
WAUPACA        MOCLDY    68  34  29 S12       29.67F
SHAWANO        CLOUDY    55  40  56 S7        29.67F
CLINTONVILLE   MOCLDY    54  39  58 S10       29.67F
$$

WIZ038-039-048-051-020200-
FOX VALLEY

CITY           SKY/WX    TMP DP  RH WIND       PRES   REMARKS
NWS GREEN BAY  CLOUDY    55  40  56 S14       29.70F
APPLETON       MOCLDY    55  37  50 S15       29.71F
OSHKOSH        PTCLDY    56  41  57 S10       29.71F
FOND DU LAC    PTCLDY    58  39  49 S12       29.73F
$$

WIZ022-050-052-020200-
EAST CENTRAL WISCONSIN

CITY           SKY/WX    TMP DP  RH WIND       PRES   REMARKS
STURGEON BAY   CLOUDY    46  36  66 S18G26    29.75F
MANITOWOC      MOCLDY    47  37  68 S17       29.76F
SHEBOYGAN      MOCLDY    50  36  58 S15       29.77F
$$

LMZ563-521-522-541>543-020200-
LAKESHORE

STATION/POSITION TIME  TEMP    WIND        PRES    VSBY  WAVE
                       AIR SEA DIR/SP/G                  HT/PER
                 (UTC) (F)     (DEG/KT/KT) (MB)    (MI)  (FT/S)
SHEBOYGAN LKSHOR 0100   44     180/ 24/ 26 1008.7F
KEWAUNEE LKSHORE 0100   42     190/ 17/ 20 1007.0F
NORTHPORT PIER   0100   38     140/ 10/ 16 1008.1S
STURGEON BAY CG  0000   39     180/ 11     1009.0   3 1/2  1
CHAMBERS ISLAND  0100   47     150/  3/ 11 1007.8S
MENOMINEE LKSHOR 0100   37     130/  7     1007.3F
$$



USA.gov is the U.S. government's official web portal to all federal, state and local government web resources and services.